• Join FlightAware (Why Join?)
  • Login
  • US Flag 
09:40PM EDT


 

Airport Tracker/Info


-or-


 

Live Flight TrackerFlight Track Log ✈ FDX1401 ✈ 19-Jul-2013 ✈ KMEM - KDFW

Flight Track Log - Related Links

Times and Time Zones

All times are in EDT time to prevent confusion due to time zone crossing. See the FDX1401 flight status page for this flight to view local times or setup timezone preferences in your user account.

Time Position Orientation Groundspeed Altitude Reporting Facility
EDT Latitude Longitude Course Direction KTS MPH feet Rate Location/Type
05:02AM 35.0167 -89.9833 195° South 176 203 1,100  Level KMEM
05:03AM 34.9667 -90.0000 195° South 217 250 2,600 2,220 Climbing KMEM
05:04AM 34.9500 -90.0667 253° West 277 319 5,600 3,000 Climbing KMEM
05:05AM 34.9333 -90.1667 259° West 282 325 8,600 2,160 Climbing KMEM
05:06AM 34.9281 -90.3139 268° West 311 358 10,700 1,740 Climbing Memphis Center
05:07AM 34.9197 -90.4458 266° West 362 417 12,700 2,100 Climbing Memphis Center
05:08AM 34.9092 -90.5850 265° West 403 464 15,000 2,040 Climbing Memphis Center
05:09AM 34.9006 -90.7242 266° West 416 479 16,800 1,740 Climbing Memphis Center
05:10AM 34.8833 -90.8711 262° West 435 501 18,500 1,620 Climbing Memphis Center
05:11AM 34.8597 -91.0175 259° West 446 513 20,100 1,500 Climbing Memphis Center
05:12AM 34.8378 -91.1719 260° West 458 527 21,600 1,500 Climbing Memphis Center
05:13AM 34.8033 -91.3283 255° West 472 543 23,200 1,500 Climbing Memphis Center
05:14AM 34.7542 -91.4769 248° West 480 552 24,600 1,320 Climbing Memphis Center
05:15AM 34.7108 -91.6331 251° West 487 560 25,900 1,140 Climbing Memphis Center
05:16AM 34.6633 -91.7736 248° West 487 560 26,900 1,260 Climbing Memphis Center
05:21AM 34.3880 -92.6590 248° West 509 586 34,000 1,140 Climbing FlightAware
05:22AM 34.3610 -92.7430 249° West 509 586 34,000 900 Level FlightAware
05:24AM 34.2880 -92.9730 249° West 501 577 35,900 900 Climbing FlightAware
05:24AM 34.2610 -93.0530 248° West 501 577 35,900  Level FlightAware
05:25AM 34.2070 -93.2500 252° West 499 574 36,000  Climbing FlightAware
05:26AM 34.1690 -93.3810 251° West 500 575 36,000  Level FlightAware
05:27AM 34.1360 -93.4960 251° West 503 579 36,000  Level FlightAware
05:27AM 34.1100 -93.5840 250° West 503 579 36,000  Level FlightAware
05:28AM 34.0690 -93.7270 251° West 496 571 36,000  Level FlightAware
05:29AM 34.0390 -93.8260 250° West 492 566 36,000  Level FlightAware
05:30AM 34.0130 -93.9110 250° West 492 566 36,000  Level FlightAware
05:31AM 33.9620 -94.0860 251° West 490 564 36,000 -60 Level FlightAware
05:31AM 33.9290 -94.1950 250° West 488 562 35,900  Descending FlightAware
05:32AM 33.8950 -94.3090 250° West 493 567 36,000 60 Climbing FlightAware
05:33AM 33.8630 -94.4150 250° West 496 571 36,000  Level FlightAware
05:33AM 33.8290 -94.5260 250° West 497 572 36,000  Level FlightAware
05:34AM 33.7980 -94.6330 251° West 496 571 36,000  Level FlightAware
05:35AM 33.7660 -94.7360 250° West 496 571 36,000 -180 Level FlightAware
05:36AM 33.7310 -94.8530 250° West 491 565 35,800 -1,380 Descending FlightAware
05:36AM 33.6980 -94.9570 249° West 487 560 34,100 -2,640 Descending FlightAware
05:37AM 33.6690 -95.0510 250° West 485 558 32,400 -2,520 Descending FlightAware
05:38AM 33.6360 -95.1580 250° West 473 544 30,800 -2,220 Descending FlightAware
05:38AM 33.6090 -95.2460 250° West 468 539 29,400 -2,100 Descending FlightAware
05:39AM 33.5820 -95.3340 250° West 465 535 28,000 -2,040 Descending FlightAware
05:39AM 33.5570 -95.4150 250° West 455 524 26,800 -2,400 Descending FlightAware
05:40AM 33.5190 -95.5340 249° West 445 512 24,900 -2,580 Descending FlightAware
05:41AM 33.4900 -95.6270 250° West 434 499 23,400 -2,220 Descending FlightAware
05:42AM 33.4600 -95.7250 250° West 422 486 21,800 -1,920 Descending FlightAware
05:42AM 33.4350 -95.8030 249° West 412 474 20,600 -2,160 Descending FlightAware
05:43AM 33.4000 -95.9120 249° West 400 460 18,700 -2,400 Descending FlightAware
05:44AM 33.3750 -95.9920 250° West 391 450 17,300 -2,100 Descending FlightAware
05:44AM 33.3520 -96.0640 249° West 383 441 16,100 -2,100 Descending FlightAware
05:45AM 33.3270 -96.1440 250° West 374 430 14,700 -2,040 Descending FlightAware
05:46AM 33.3000 -96.2280 249° West 365 420 13,300 -1,920 Descending FlightAware
05:46AM 33.2790 -96.2940 249° West 357 411 12,200 -1,680 Descending FlightAware
05:47AM 33.2550 -96.3660 248° West 342 394 11,200 -1,140 Descending FlightAware
05:48AM 33.2330 -96.4350 249° West 312 359 10,700 -840 Descending FlightAware
05:48AM 33.2170 -96.4850 249° West 296 341 10,200 -1,020 Descending FlightAware
05:49AM 33.2070 -96.5170 250° West 293 337 9,700 -1,200 Descending FlightAware
05:49AM 33.1960 -96.5510 249° West 291 335 9,200 -1,500 Descending FlightAware
05:50AM 33.1730 -96.6200 248° West 282 325 8,200 -1,560 Descending FlightAware
05:50AM 33.1600 -96.6600 249° West 276 318 7,600 -1,320 Descending FlightAware
05:51AM 33.1480 -96.6990 250° West 276 318 7,000 -1,380 Descending FlightAware
05:51AM 33.1350 -96.7370 248° West 270 311 6,400 -1,440 Descending FlightAware
05:51AM 33.1280 -96.7590 249° West 272 313 6,000 -1,260 Descending FlightAware
05:52AM 33.1160 -96.7980 250° West 264 304 5,500 -1,080 Descending FlightAware
05:52AM 33.1040 -96.8350 249° West 260 299 5,000 -900 Descending FlightAware
05:53AM 33.0920 -96.8720 249° West 242 278 4,700 -660 Descending FlightAware
05:53AM 33.0840 -96.8950 247° West 234 269 4,500 -780 Descending FlightAware
05:53AM 33.0730 -96.9280 248° West 226 260 4,100 -900 Descending FlightAware
05:54AM 33.0680 -96.9440 250° West 223 257 3,900 -780 Descending FlightAware
05:54AM 33.0580 -96.9750 249° West 214 246 3,600 -1,080 Descending FlightAware
05:55AM 33.0440 -97.0030 239° Southwest 217 250 2,900 -1,500 Descending FlightAware
05:55AM 33.0340 -97.0100 210° Southwest 216 249 2,600 -1,020 Descending FlightAware
05:55AM 33.0120 -97.0190 199° South 191 220 2,300 -840 Descending FlightAware
05:56AM 32.9910 -97.0240 191° South 158 182 1,900 -840 Descending FlightAware
05:56AM 32.9790 -97.0250 184° South 137 158 1,700 -900 Descending FlightAware
05:56AM 32.9630 -97.0260 183° South 128 147 1,300 -540 Descending FlightAware
05:57AM 32.9308 -97.0272 183° South 148 170 1,000 -420 Descending Fort Worth Center
05:58AM 32.8975 -97.0350 191° South 142 163 500 -540 Descending Fort Worth Center